Wetbulb
52.60 53.34 53.85 54.68 55.94 55.11 52.01 47.31 41.80 47.98 48.99 38.96 39.38 36.20 38.92 42.42 41.94 42.94 39.77 39.43 40.66 39.73 39.49 36.30 34.51 33.73 38.21 39.78 37.69 33.67 36.05 30.18 24.13 27.85 33.73 34.66 32.30 29.19 28.52 20.40 19.48 21.12 20.22 23.61
52.37 51.74 52.40 53.79 55.02 53.88 48.71 43.71 40.79 47.43 45.82 34.62 34.18 36.94 37.54 39.39 38.54 38.73 38.13 37.13 40.05 41.26 38.47 34.77 36.10 36.16 37.72 38.48 36.80 35.45 34.23 28.79 20.96 24.34 28.30 30.46 27.91 30.00 31.48 29.70 26.21 23.92 15.50 22.96
52.48 51.84 51.83 53.20 54.02 54.79 49.09 41.14 34.31 40.13 41.67 39.70 36.80 35.47 35.77 36.28 39.70 38.38 39.19 37.78 39.40 37.68 35.66 37.41 35.74 35.99 38.41 37.56 37.78 41.26 39.48 30.41 26.24 22.75 24.81 28.31 25.98 28.39 30.29 29.05 23.28 25.47 25.95 28.07
52.55 51.90 51.92 52.30 52.91 54.13 48.12 43.15 36.63 38.54 32.12 34.82 36.55 37.67 37.19 35.72 35.72 38.03 39.46 36.89 36.61 35.38 33.17 34.32 34.86 36.49 36.64 38.38 40.44 38.56 36.03 26.75 28.84 30.51 31.15 30.90 30.04 29.71 30.33 28.24 28.34 25.01 27.64 27.35
52.08 51.91 51.59 51.88 52.60 52.83 46.98 40.45 37.95 40.06 37.44 37.80 35.77 36.23 34.37 34.18 36.52 36.71 35.24 35.19 37.41 35.92 34.81 35.68 33.46 35.85 33.72 33.13 34.30 34.28 35.33 26.64 29.73 26.95 30.37 30.31 28.08 29.97 30.62 30.78 31.07 30.61 30.55 29.32
50.96 51.43 51.18 51.46 52.05 51.74 45.88 45.85 43.94 39.51 35.37 35.33 34.29 32.85 34.51 35.11 36.96 37.96 39.23 37.82 36.65 35.28 36.67 39.20 39.81 40.09 39.75 37.18 34.28 34.35 33.98 31.65 27.18 23.27 26.79 26.45 21.27 26.93 29.25 30.78 32.37 31.95 27.18 31.76
50.52 50.92 50.90 51.07 51.50 51.07 47.96 45.36 43.50 38.10 31.84 34.39 33.60 34.74 35.11 34.42 35.67 33.83 36.97 38.07 36.15 37.55 40.60 39.80 38.07 36.46 36.44 35.84 35.97 37.47 33.10 31.95 29.63 23.59 23.05 14.68 25.24 28.75 31.38 30.64 31.92 32.80 31.37 29.27
49.99 50.46 50.67 50.62 50.66 50.89 47.51 46.55 43.16 38.95 33.77 34.97 34.89 35.04 35.04 35.97 36.83 35.88 36.34 37.75 38.29 40.33 37.73 32.54 29.82 28.37 29.24 30.21 33.51 33.53 34.78 32.11 26.51 22.94 20.51 23.68 26.84 26.50 25.41 25.64 25.48 26.05 26.38 27.69
49.28 49.82 50.45 50.39 50.32 50.42 46.96 45.09 46.28 42.67 35.82 34.63 37.62 35.34 35.96 32.73 32.09 32.74 34.80 35.69 36.54 38.79 33.64 30.99 24.52 21.85 23.20 22.62 23.84 30.11 32.02 32.65 27.86 24.92 20.80 15.91 20.80 24.55 27.05 27.77 19.55 25.29 27.20 25.78
48.70 49.09 49.78 50.13 49.85 49.72 46.63 44.16 46.59 42.85 35.69 37.94 36.53 35.12 34.51 36.27 34.10 32.83 32.43 32.38 32.58 35.35 30.56 27.34 25.64 23.76 27.48 20.78 20.51 21.01 26.16 26.69 23.30 23.08 21.91 24.20 22.82 24.51 26.74 18.34 19.25 23.88 25.12 24.75
47.95 48.23 49.13 49.13 49.31 49.33 46.26 41.27 45.67 43.76 38.04 37.71 37.20 38.87 36.17 36.35 36.04 30.89 32.01 30.95 30.94 29.87 27.59 27.09 26.34 25.07 24.21 22.16 22.76 21.40 21.92 21.28 19.99 22.75 20.72 18.64 24.82 24.72 22.23 22.86 23.34 25.17 25.44 25.65
47.67 47.38 47.96 48.31 48.66 48.90 48.14 41.28 42.39 45.38 39.47 33.98 35.76 34.72 34.99 36.14 39.89 37.36 33.09 31.45 30.21 30.54 28.33 27.11 26.76 26.07 21.71 20.87 17.84 23.63 20.77 22.99 21.34 22.94 22.09 23.78 24.13 24.59 25.29 25.97 24.41 25.47 25.94 26.94
47.17 46.59 47.44 47.92 48.45 48.44 47.54 42.69 39.51 39.14 34.27 31.85 32.45 32.37 35.51 37.29 35.49 36.69 31.77 32.84 33.30 32.27 31.22 30.36 27.28 26.06 24.36 17.72 19.56 20.17 21.90 23.30 22.17 23.29 20.33 21.74 24.11 25.38 26.64 27.30 26.62 26.72 27.49 27.63
45.73 46.30 46.90 47.48 47.91 48.31 48.06 39.18 40.19 40.52 36.48 33.02 28.92 33.47 31.25 35.32 35.73 36.96 37.32 33.72 33.32 32.37 32.32 28.03 25.92 25.33 25.88 18.93 19.62 18.39 20.65 21.70 20.79 22.36 22.51 22.11 22.33 25.37 26.25 26.21 26.67 26.56 27.15 27.28
46.03 46.43 46.97 47.62 47.72 47.98 43.90 39.13 40.24 41.80 38.63 28.64 25.20 28.88 29.05 31.63 33.05 35.65 36.84 34.91 32.08 29.89 27.48 26.13 24.52 25.64 22.01 19.88 18.84 15.78 19.95 20.27 20.12 19.38 24.87 23.42 20.45 24.85 25.57 24.90 25.30 26.14 25.47 25.61
46.22 46.11 46.61 47.54 47.63 44.74 39.72 33.29 37.28 38.92 37.65 27.43 22.31 29.15 28.88 29.54 30.32 31.61 33.13 33.30 31.59 31.29 28.58 26.57 27.67 26.25 23.31 20.88 16.01 20.79 22.13 23.75 25.23 23.28 22.81 22.77 24.07 25.12 25.41 24.27 26.17 26.96 25.97 26.36
46.51 45.96 46.87 46.99 47.17 40.74 36.80 34.08 35.11 40.11 38.47 27.96 21.30 21.67 27.20 30.42 30.37 29.51 28.61 28.39 28.14 28.94 27.48 26.13 25.28 22.40 25.65 22.66 15.24 20.12 21.15 23.19 23.67 24.68 24.08 21.69 21.72 20.88 24.16 24.35 24.39 26.74 25.53 25.53
45.83 46.32 46.11 43.87 40.93 37.56 32.45 37.01 40.69 38.84 33.20 30.90 22.14 19.41 21.48 27.02 24.93 22.37 27.74 26.17 27.60 26.80 25.51 23.17 20.43 20.75 20.52 14.64 19.78 21.64 23.04 23.47 22.63 22.81 23.95 23.23 22.99 22.13 22.91 23.95 24.11 22.17 22.55 22.99
43.08 42.45 40.45 35.56 33.56 29.94 30.40 37.09 37.34 36.56 32.07 25.31 23.45 16.70 15.32 25.02 25.41 26.09 26.13 27.57 19.97 24.98 18.34 20.94 20.93 17.75 12.62 18.74 19.51 20.63 22.53 22.06 20.40 21.81 22.27 21.17 20.78 20.56 20.95 20.97 20.93 19.55 20.36 20.71
39.58 35.35 31.49 25.95 29.83 37.52 35.47 31.59 25.85 25.09 28.22 27.34 22.35 23.74 18.87 23.78 23.79 23.51 21.88 22.80 19.52 10.38 17.13 20.13 16.12 15.97 22.06 21.71 22.29 20.66 19.59 20.36 20.62 16.74 18.02 19.28 18.28 18.83 18.36 18.69 19.58 19.51 19.82 20.26
33.10 27.58 25.03 31.05 34.71 29.53 25.78 18.71 18.89 19.06 16.44 22.17 21.09 20.92 18.92 23.91 19.54 19.43 22.86 15.83 14.67 1.64 11.75 13.02 10.45 14.36 16.74 12.16 14.66 15.49 19.29 19.78 18.12 17.75 18.08 19.01 17.22 15.22 16.44 17.96 19.41 20.19 20.37 20.20
31.62 29.61 29.86 26.88 23.42 17.76 14.82 6.84 15.14 15.96 14.58 18.27 15.70 17.41 20.74 21.22 24.73 18.94 19.89 14.10 11.05 1.29 13.97 5.60 5.97 13.10 18.82 12.39 10.16 14.47 16.19 15.55 15.82 17.45 13.77 15.57 18.25 17.86 16.57 17.09 18.31 19.20 20.31 21.01
26.98 19.63 14.00 14.37 11.09 6.83 1.24 -0.94 4.17 10.22 17.20 17.46 15.74 16.59 17.90 19.66 19.15 13.86 14.85 3.60 4.87 15.92 0.53 5.44 8.92 16.03 15.77 8.58 9.87 14.56 14.35 12.85 13.98 15.87 18.20 17.94 16.72 18.97 16.06 14.92 18.03 18.19 17.60 18.76
18.46 10.49 6.24 4.08 1.46 4.88 10.19 11.28 12.43 18.72 20.09 19.51 17.67 16.14 15.67 14.92 10.35 10.09 2.61 10.73 9.61 -4.87 -7.08 -1.67 4.20 11.62 13.36 11.81 14.58 13.17 12.10 12.80 13.58 15.34 16.95 16.50 16.53 16.30 17.71 18.13 17.87 17.30 17.10 18.59
8.39 8.66 3.18 0.19 10.04 5.86 6.10 10.98 13.96 18.27 18.44 15.33 11.73 11.80 13.36 5.98 1.25 1.54 4.64 -3.02 -9.40 -3.06 -1.11 6.32 12.31 15.56 12.44 15.09 17.02 14.00 12.13 9.28 9.14 10.83 13.05 13.40 13.47 13.58 15.12 17.11 16.98 17.12 17.53 17.67
6.58 8.96 3.29 15.86 8.57 14.99 17.72 16.77 16.79 15.86 14.82 17.29 13.82 1.18 -0.81 0.92 1.46 -2.14 -5.27 -5.85 -6.33 2.61 6.76 13.72 13.90 15.73 15.47 15.91 17.22 16.86 13.10 12.65 12.46 10.28 12.52 14.76 13.72 13.86 14.81 15.65 15.59 16.01 16.48 16.53
2.75 13.59 18.32 14.40 13.51 14.20 11.89 7.74 9.69 13.78 12.17 4.93 2.54 -2.80 -0.80 1.21 -3.13 -4.07 3.76 -0.15 5.99 9.89 11.70 14.35 13.56 12.07 11.37 12.83 15.82 17.38 17.15 15.71 12.50 8.17 10.31 12.40 13.53 9.97 9.97 11.36 13.68 15.37 17.38 18.90
MSLP
1019.89 1019.76 1019.69 1019.73 1019.69 1020.12 1020.73 1020.94 1021.49 1021.95 1022.13 1022.50 1021.62 1021.28 1020.46 1019.83 1019.29 1019.10 1018.95 1019.39 1019.02 1019.21 1018.97 1019.33 1018.97 1018.13 1017.70 1017.61 1018.53 1019.03 1019.19 1019.56 1019.91 1019.69 1018.68 1018.47 1018.89 1019.44 1020.27 1021.43 1021.59 1021.44 1020.48 1017.60
1019.22 1019.28 1019.61 1019.72 1019.63 1020.03 1020.65 1020.71 1021.74 1022.16 1022.01 1021.78 1021.65 1021.38 1020.58 1019.94 1019.87 1019.54 1019.73 1019.61 1019.38 1019.32 1019.58 1019.59 1019.06 1018.57 1018.24 1018.37 1018.82 1019.16 1019.64 1019.88 1020.48 1019.88 1019.40 1019.14 1018.98 1018.96 1019.65 1020.02 1020.46 1019.97 1020.23 1017.54
1018.37 1018.76 1019.18 1019.29 1019.42 1019.43 1020.29 1021.02 1021.68 1022.03 1021.69 1021.21 1021.07 1021.13 1020.82 1020.40 1019.89 1019.73 1019.45 1019.57 1019.63 1019.62 1019.46 1019.47 1018.98 1019.08 1018.62 1018.77 1019.05 1019.71 1019.83 1020.41 1020.54 1019.82 1019.54 1019.55 1019.46 1019.08 1019.14 1019.80 1019.43 1018.71 1017.69 1016.86
1017.89 1018.06 1018.63 1018.77 1019.02 1019.04 1020.06 1020.40 1020.25 1020.34 1021.15 1020.71 1020.58 1020.56 1020.47 1020.28 1020.21 1020.16 1019.80 1019.61 1019.77 1019.86 1019.94 1019.65 1019.29 1019.46 1019.41 1019.21 1019.25 1019.87 1020.38 1020.45 1020.68 1019.67 1019.46 1019.46 1018.62 1018.56 1018.69 1018.71 1018.21 1017.84 1016.35 1016.41
1017.32 1017.58 1017.99 1018.15 1018.68 1018.57 1018.86 1019.32 1019.82 1020.28 1020.09 1020.21 1020.48 1020.04 1019.54 1019.53 1019.67 1020.09 1020.24 1019.74 1019.53 1019.60 1019.64 1019.52 1019.33 1019.59 1019.84 1019.29 1019.63 1020.07 1020.47 1020.55 1020.49 1019.64 1019.45 1019.22 1018.29 1017.89 1017.49 1017.35 1016.87 1016.24 1016.25 1015.51
1016.99 1017.11 1017.19 1017.18 1017.84 1018.54 1018.24 1018.07 1018.14 1018.56 1019.29 1019.71 1020.16 1019.18 1018.96 1019.24 1019.17 1019.01 1019.22 1019.48 1019.80 1019.58 1019.46 1019.47 1019.26 1019.43 1019.80 1019.88 1020.01 1020.24 1020.62 1020.74 1020.84 1019.72 1019.22 1019.09 1017.82 1016.38 1015.97 1015.72 1015.75 1015.77 1015.68 1015.15
1016.54 1016.49 1016.65 1016.73 1016.91 1017.26 1017.68 1017.59 1017.84 1018.23 1018.67 1018.60 1018.46 1018.56 1018.65 1019.10 1019.16 1018.99 1019.15 1019.44 1019.62 1019.63 1019.42 1019.48 1019.80 1019.72 1019.70 1019.88 1020.08 1020.41 1020.32 1020.46 1020.53 1020.04 1019.77 1018.61 1016.04 1015.74 1015.35 1015.34 1015.45 1015.49 1015.60 1015.87
1015.96 1015.82 1015.73 1016.12 1016.26 1016.46 1017.15 1016.91 1017.57 1017.37 1017.77 1017.70 1017.69 1018.18 1018.24 1018.53 1018.72 1018.98 1019.34 1019.73 1019.65 1019.42 1019.89 1020.51 1020.13 1020.05 1019.99 1019.37 1019.55 1019.95 1020.33 1020.44 1020.22 1020.00 1019.47 1017.63 1016.55 1016.20 1016.05 1015.84 1016.05 1016.08 1016.40 1016.79
1015.09 1014.97 1014.79 1015.06 1015.40 1015.69 1016.57 1016.47 1016.88 1017.32 1017.33 1016.20 1016.89 1017.17 1017.45 1018.16 1018.58 1019.20 1019.57 1020.26 1020.36 1020.09 1020.19 1020.14 1019.86 1019.70 1019.32 1019.40 1019.57 1019.32 1020.48 1020.60 1020.40 1019.92 1019.39 1018.18 1016.97 1016.61 1016.64 1016.59 1016.97 1016.95 1017.15 1017.65
1013.84 1014.01 1013.90 1014.12 1014.46 1014.96 1015.57 1015.97 1016.25 1016.82 1016.40 1016.05 1016.73 1016.29 1016.55 1017.32 1018.30 1019.08 1019.60 1020.25 1020.66 1020.34 1019.92 1019.66 1019.45 1019.22 1018.50 1018.87 1019.36 1019.91 1020.40 1020.41 1019.80 1019.41 1019.05 1017.95 1017.28 1017.18 1017.45 1018.03 1018.30 1017.88 1018.06 1018.27
1013.07 1013.19 1013.17 1013.33 1013.81 1014.29 1014.91 1014.69 1015.43 1016.06 1016.09 1016.47 1016.62 1016.48 1016.40 1017.07 1017.70 1018.62 1019.33 1020.24 1020.15 1020.32 1019.96 1019.51 1019.02 1018.90 1018.40 1018.26 1018.41 1018.89 1019.21 1019.62 1019.47 1019.33 1018.85 1018.08 1017.40 1017.70 1018.18 1018.39 1018.49 1018.65 1018.86 1018.96
1012.30 1012.38 1012.60 1012.66 1012.93 1013.40 1014.07 1014.52 1015.02 1015.51 1016.01 1016.89 1016.89 1016.97 1016.76 1016.75 1016.04 1017.12 1018.51 1018.32 1018.09 1018.50 1019.46 1018.98 1018.61 1018.93 1018.91 1018.52 1018.79 1018.18 1018.47 1018.03 1018.41 1018.37 1017.84 1017.57 1017.59 1017.75 1018.02 1018.35 1018.75 1019.07 1019.22 1019.37
1011.11 1011.38 1011.87 1011.82 1012.06 1012.35 1012.92 1013.74 1014.70 1015.33 1016.15 1017.07 1017.16 1017.30 1017.10 1016.69 1016.64 1017.02 1017.26 1018.07 1017.77 1018.20 1018.50 1018.82 1018.76 1018.96 1019.06 1019.20 1018.94 1018.34 1017.95 1017.72 1017.96 1018.05 1018.02 1017.92 1017.95 1018.03 1018.10 1018.27 1018.81 1019.12 1019.36 1019.56
1010.08 1010.46 1010.58 1010.91 1011.15 1011.35 1011.85 1013.18 1013.80 1014.18 1015.11 1015.31 1016.68 1017.01 1016.96 1016.96 1016.96 1017.19 1017.03 1017.28 1017.78 1018.45 1018.71 1018.96 1018.93 1019.12 1018.89 1019.14 1018.98 1018.73 1018.19 1018.06 1017.99 1018.02 1018.00 1018.28 1018.34 1018.15 1018.32 1018.77 1019.12 1019.38 1019.52 1019.71
1008.81 1009.19 1009.78 1010.09 1010.14 1010.60 1011.59 1012.76 1012.92 1012.67 1013.85 1015.36 1016.91 1017.21 1017.00 1017.11 1017.08 1017.06 1017.70 1017.54 1017.95 1018.65 1019.10 1019.03 1019.07 1019.11 1019.47 1019.55 1019.36 1018.64 1018.09 1017.72 1017.71 1017.57 1017.60 1017.89 1018.43 1018.26 1018.48 1018.90 1019.25 1019.47 1019.74 1019.98
1007.56 1008.14 1008.61 1009.01 1009.54 1010.82 1011.69 1012.73 1012.77 1012.51 1012.68 1015.60 1017.02 1017.92 1017.54 1016.73 1016.89 1017.70 1018.01 1018.02 1018.16 1018.46 1018.79 1019.05 1019.05 1019.12 1019.37 1019.69 1019.24 1018.09 1017.73 1017.47 1017.31 1017.60 1017.86 1018.10 1018.45 1018.61 1018.88 1019.26 1019.49 1019.63 1019.92 1020.15
1006.07 1006.84 1007.53 1008.14 1008.88 1010.17 1010.54 1010.96 1010.86 1011.74 1012.72 1014.70 1017.29 1017.41 1017.31 1017.92 1017.84 1018.32 1018.61 1018.51 1018.66 1018.87 1019.20 1019.34 1019.45 1019.43 1019.34 1019.43 1018.94 1018.09 1017.94 1017.95 1017.97 1018.04 1018.37 1018.92 1019.04 1019.35 1019.63 1019.71 1019.84 1019.95 1020.14 1020.29
1004.79 1005.80 1006.92 1008.27 1009.56 1010.40 1011.28 1012.31 1011.14 1012.21 1013.11 1014.18 1015.28 1017.17 1018.06 1018.08 1017.99 1018.66 1018.85 1019.08 1019.23 1019.45 1019.52 1019.74 1019.75 1019.91 1019.84 1019.50 1018.61 1018.25 1018.27 1018.45 1018.72 1018.94 1019.05 1019.37 1019.61 1019.82 1019.98 1020.07 1020.19 1020.38 1020.47 1020.50
1005.40 1006.86 1007.71 1009.22 1010.48 1011.73 1012.59 1012.33 1011.82 1012.31 1012.92 1013.63 1015.08 1016.40 1017.46 1017.65 1018.16 1018.77 1019.21 1019.28 1019.81 1020.02 1020.14 1019.94 1019.96 1019.88 1019.59 1018.58 1018.62 1018.79 1018.82 1019.03 1019.53 1019.74 1019.89 1020.07 1020.28 1020.54 1020.69 1020.76 1020.81 1020.93 1020.82 1020.78
1006.42 1007.17 1008.49 1011.04 1011.95 1012.01 1012.29 1012.92 1013.31 1014.05 1013.99 1014.42 1015.55 1016.32 1017.36 1017.88 1018.31 1018.75 1019.54 1019.78 1020.12 1020.65 1020.38 1020.20 1020.21 1019.56 1018.76 1018.63 1018.63 1018.97 1019.46 1019.73 1020.12 1020.49 1020.86 1021.00 1021.15 1021.30 1021.29 1021.27 1021.27 1021.24 1021.02 1020.84
1007.20 1009.06 1010.77 1012.18 1012.28 1012.55 1013.11 1014.37 1014.62 1015.09 1015.43 1015.70 1016.40 1016.79 1017.26 1017.91 1018.26 1018.83 1019.38 1020.20 1020.74 1021.28 1021.06 1021.03 1020.95 1019.97 1019.69 1020.00 1019.89 1020.05 1020.21 1020.40 1020.90 1021.16 1021.44 1021.56 1021.72 1021.70 1021.61 1021.34 1021.19 1021.01 1020.81 1020.57
1007.23 1008.70 1010.96 1012.06 1012.75 1013.65 1014.64 1016.23 1016.16 1016.00 1016.56 1016.94 1017.13 1017.48 1017.69 1018.35 1018.36 1019.28 1020.18 1020.87 1021.66 1022.15 1021.86 1022.16 1021.57 1020.30 1020.38 1020.87 1020.88 1020.94 1021.02 1021.18 1021.46 1021.43 1021.70 1021.64 1021.67 1021.61 1021.52 1021.25 1020.85 1020.64 1020.37 1020.08
1008.17 1009.58 1011.99 1013.29 1014.81 1015.83 1016.69 1017.67 1017.54 1017.30 1017.14 1017.48 1017.81 1018.39 1018.67 1019.05 1019.39 1020.36 1021.03 1021.99 1022.58 1022.51 1023.37 1022.78 1021.46 1020.62 1020.82 1021.15 1021.13 1021.39 1021.30 1021.40 1021.61 1021.65 1021.56 1021.47 1021.38 1021.23 1021.10 1020.76 1020.36 1020.08 1019.72 1019.38
1010.92 1013.02 1015.15 1016.52 1017.04 1017.77 1017.92 1017.79 1017.59 1017.65 1017.54 1017.86 1018.35 1019.14 1019.59 1020.23 1020.99 1021.75 1022.59 1023.18 1023.40 1024.17 1024.28 1022.86 1021.58 1020.70 1020.79 1020.98 1021.15 1021.44 1021.62 1021.77 1021.68 1021.54 1021.32 1021.17 1020.98 1020.62 1020.33 1020.06 1019.72 1019.44 1018.96 1018.49
1013.78 1015.09 1017.60 1018.51 1018.79 1018.82 1018.59 1018.26 1018.05 1018.11 1018.11 1018.50 1019.31 1020.03 1020.61 1021.76 1022.52 1023.10 1023.77 1024.54 1024.53 1024.21 1023.17 1022.08 1021.08 1020.75 1020.99 1021.12 1021.26 1021.41 1021.58 1021.83 1021.68 1021.13 1021.04 1020.73 1020.48 1020.23 1019.70 1019.27 1019.03 1018.71 1018.18 1017.70
1016.07 1017.78 1018.55 1018.80 1018.97 1019.03 1018.74 1018.89 1019.09 1019.00 1018.98 1019.22 1019.96 1021.35 1022.49 1023.18 1023.59 1024.16 1024.48 1024.65 1023.99 1023.06 1022.35 1021.78 1021.54 1021.28 1021.26 1021.21 1021.09 1020.97 1020.92 1020.92 1020.84 1020.71 1020.57 1020.26 1019.94 1019.60 1019.05 1018.50 1018.15 1017.67 1017.23 1016.66
1018.57 1019.16 1018.73 1018.75 1019.04 1019.40 1019.59 1019.50 1019.69 1019.67 1020.06 1021.08 1021.81 1023.03 1023.71 1023.93 1024.29 1024.42 1024.03 1023.75 1022.93 1022.46 1022.09 1021.62 1021.39 1021.36 1021.20 1021.05 1020.70 1020.46 1020.37 1020.31 1020.22 1020.08 1019.87 1019.57 1019.15 1018.88 1018.40 1017.71 1016.83 1016.47 1015.89 1015.33
Wind_Speed
7 5 6 6 5 14 4 2 3 2 1 2 2 3 5 2 3 0 3 1 5 6 6 2 4 6 7 6 5 4 5 4 4 11 6 5 5 8 6 5 5 4 3 8
9 6 6 8 6 15 4 3 3 1 0 4 3 2 3 2 3 5 4 6 7 6 4 5 7 3 3 4 4 3 1 2 3 8 4 3 3 5 4 2 2 13 3 7
12 9 7 8 6 17 2 3 2 2 3 1 3 4 4 4 5 3 5 2 2 4 6 6 4 4 5 7 7 7 6 3 7 8 3 2 4 5 5 7 6 11 17 16
12 12 11 9 8 18 4 3 4 5 6 6 7 5 2 4 5 5 2 3 9 6 5 4 5 6 6 4 8 5 6 7 8 15 12 8 16 13 10 14 12 12 12 12
14 15 14 11 10 9 4 5 4 2 2 7 12 10 6 18 10 7 5 8 9 9 8 7 3 2 2 5 3 8 5 5 4 11 8 10 20 16 17 20 20 19 17 19
17 16 17 13 13 12 4 2 1 5 5 6 6 7 10 7 8 7 13 10 9 9 13 13 9 5 6 4 3 8 5 4 4 8 4 6 11 11 19 16 15 16 18 16
17 18 18 17 16 15 3 3 2 3 5 9 10 6 12 14 12 11 3 5 6 2 4 4 3 1 4 6 9 6 3 4 3 3 1 7 5 2 4 10 10 10 9 3
19 19 20 19 17 14 3 2 4 3 4 7 8 10 7 7 9 11 12 7 2 4 5 2 3 1 2 8 15 15 11 3 3 4 5 9 11 3 3 5 6 2 5 4
19 19 21 22 19 17 4 3 1 3 4 9 9 10 9 8 5 1 4 1 2 2 4 4 6 6 5 4 2 1 10 10 6 2 5 6 2 1 5 3 5 3 4 4
18 19 17 18 18 16 6 3 6 3 4 3 4 8 10 6 5 3 4 4 3 0 5 6 5 5 5 6 6 6 4 6 15 12 9 6 1 1 4 5 3 3 5 3
18 20 17 17 18 18 8 5 9 7 4 3 2 2 6 4 5 5 5 4 2 3 4 4 4 5 6 4 6 8 10 7 4 4 5 9 3 2 4 3 3 5 5 4
20 19 21 20 19 19 16 7 3 5 3 1 1 2 3 4 6 7 7 3 5 5 3 3 2 3 1 4 4 2 5 7 6 9 6 3 2 4 4 4 4 4 5 4
20 21 23 22 20 20 15 5 5 4 4 1 1 5 4 1 4 2 5 2 4 4 2 2 2 3 4 5 6 4 3 2 4 1 2 5 5 3 3 6 5 6 5 5
24 24 22 21 21 19 16 5 4 4 3 5 3 4 2 4 3 2 2 5 4 4 2 2 2 2 3 4 2 4 5 5 6 3 2 3 3 6 7 7 6 6 4 3
25 23 22 23 20 18 2 3 5 4 7 2 2 2 1 2 6 4 4 7 5 2 3 2 3 1 2 1 0 4 4 6 5 5 6 4 3 6 6 7 6 5 5 3
26 21 21 20 20 18 4 2 3 3 4 6 3 2 1 5 6 7 4 3 2 2 2 2 2 1 3 3 3 5 5 2 3 4 3 4 6 7 4 5 4 4 4 4
25 23 24 22 15 7 4 4 5 12 4 5 5 3 3 2 4 2 2 3 2 1 1 1 2 2 3 2 4 4 4 6 5 5 6 3 2 4 4 4 2 2 2 3
29 19 13 26 25 10 8 4 14 5 5 3 4 4 3 3 2 2 1 1 1 1 1 1 2 1 1 5 6 4 5 6 6 6 5 4 4 2 2 1 1 2 5 5
35 34 26 9 6 3 2 7 9 2 2 4 3 5 3 3 2 2 1 1 1 1 1 3 3 3 5 6 5 6 5 5 7 5 5 3 2 3 3 4 4 3 6 5
18 7 6 4 2 15 8 4 4 3 3 4 3 3 3 3 2 2 3 1 2 2 3 2 2 4 6 2 5 8 7 7 5 4 3 2 2 2 4 5 5 5 7 7
4 4 4 4 8 1 3 3 3 1 4 3 1 2 5 0 3 3 1 3 1 3 4 3 3 4 1 3 6 3 6 7 5 4 3 3 4 4 5 8 7 7 8 10
7 12 6 3 3 4 7 2 3 3 3 1 3 2 3 1 1 3 1 3 3 3 0 4 3 3 4 3 3 2 5 5 3 2 3 4 5 6 6 7 10 9 10 11
4 7 6 5 4 8 6 3 3 2 2 2 2 3 3 2 3 3 3 4 3 2 3 4 5 2 3 4 3 2 3 3 2 3 4 6 7 7 7 10 10 10 10 10
6 5 6 4 4 3 2 2 3 1 3 4 3 3 3 1 4 1 5 1 4 4 1 6 4 6 5 5 2 3 3 4 5 6 6 7 7 10 9 9 9 10 12 13
5 6 5 4 2 0 3 2 2 3 2 3 3 4 4 3 5 2 4 6 2 6 6 4 3 2 3 3 2 3 4 4 5 4 6 8 8 8 12 11 9 10 12 13
6 7 5 2 4 3 3 3 3 3 2 2 4 3 5 2 4 5 5 6 6 4 3 2 1 1 1 2 4 5 5 6 7 6 7 9 9 10 12 12 11 12 13 14
6 4 2 2 4 3 2 2 2 2 3 1 4 5 5 1 4 2 4 6 3 3 3 2 2 3 4 5 6 7 8 8 6 6 7 10 9 7 8 13 13 11 12 13
Wind_Direction
263 289 304 306 250 160 155 157 220 119 10 175 156 192 195 238 214 188 165 39 248 237 188 274 257 239 200 140 151 178 215 197 239 231 234 195 177 192 164 139 261 236 183 272
225 214 280 291 288 159 136 170 124 116 325 205 194 252 242 207 198 192 201 228 219 191 228 234 219 250 167 110 142 173 32 251 339 318 4 340 201 192 199 219 144 237 170 263
232 230 227 257 262 188 129 138 172 164 207 143 171 162 226 232 209 233 192 251 82 168 214 243 275 252 201 181 173 135 62 280 206 227 180 111 230 225 206 216 226 256 234 259
236 224 225 217 243 212 148 203 221 181 198 204 206 176 203 185 206 235 180 181 220 187 235 214 223 232 276 213 178 173 169 234 233 260 266 272 276 267 246 236 242 235 262 241
247 227 226 220 219 235 203 169 173 170 177 168 195 197 191 239 240 172 236 233 210 219 218 204 210 216 254 226 198 168 178 256 234 274 242 249 265 262 254 248 247 248 258 258
266 240 222 219 210 201 220 183 317 139 200 167 182 199 203 221 227 220 243 238 244 228 237 239 258 202 200 213 228 197 204 208 192 257 208 257 277 246 237 244 250 243 246 255
265 253 233 223 210 199 207 181 132 177 234 191 197 207 191 211 213 223 219 221 225 180 70 58 23 190 232 211 209 217 213 207 199 248 82 251 249 270 267 224 253 241 263 176
261 261 237 229 215 204 206 165 178 169 230 213 206 197 193 192 215 230 239 238 147 132 75 207 240 269 315 236 229 221 212 195 248 235 202 298 298 217 203 182 246 209 150 127
256 261 241 223 224 208 177 205 226 208 195 215 212 202 193 210 209 266 206 126 348 145 166 191 208 211 210 217 237 314 200 227 242 184 247 248 258 283 326 323 263 157 127 130
255 260 241 220 212 211 190 243 180 242 207 236 173 206 209 138 143 186 134 163 205 205 186 206 201 222 196 196 186 171 185 202 221 233 242 265 111 348 327 177 269 73 98 86
259 260 244 231 225 222 195 236 194 233 198 242 209 232 148 120 159 186 144 112 184 158 227 207 194 201 226 177 182 176 174 181 199 197 234 257 175 160 194 177 49 107 85 79
256 253 253 240 229 222 212 245 148 197 213 110 349 11 24 325 159 179 181 255 155 158 205 224 179 206 234 162 237 174 202 188 185 187 212 152 150 149 155 138 143 148 126 109
255 252 251 242 239 232 211 219 150 115 154 167 128 207 191 86 64 316 161 204 179 163 183 192 183 210 136 177 230 210 175 174 193 109 186 178 155 131 130 152 144 132 126 116
251 250 249 244 242 239 227 155 184 142 160 224 200 199 138 178 137 227 340 118 77 94 110 173 174 202 173 215 229 194 196 138 175 235 130 128 221 186 149 123 119 117 116 123
246 242 243 242 238 238 220 109 202 182 183 110 103 101 355 175 157 180 135 137 122 135 153 181 206 148 125 306 33 241 193 187 174 212 186 154 216 208 164 142 150 158 161 175
232 237 241 239 235 148 135 208 198 182 115 118 131 3 331 16 136 168 170 150 99 139 160 187 172 221 150 206 236 250 223 165 161 172 89 112 130 93 88 124 151 151 170 210
230 237 241 229 225 145 196 188 147 147 109 111 145 176 75 89 73 77 58 19 92 87 119 214 159 219 164 240 219 226 188 145 122 116 110 108 51 123 90 100 67 353 295 258
226 217 162 112 106 83 54 30 113 85 97 145 130 103 118 204 117 102 42 106 109 96 161 96 186 69 129 248 240 263 152 121 108 104 79 102 121 83 27 10 353 295 279 276
113 115 103 80 47 66 90 97 58 18 181 108 93 138 149 129 78 102 103 110 136 87 191 231 147 193 222 222 197 173 157 155 144 110 92 63 73 46 19 358 336 308 287 292
96 62 64 86 53 133 123 29 45 4 3 32 92 99 118 134 129 122 119 162 182 177 232 92 187 252 245 197 172 138 133 125 122 89 110 40 339 335 310 286 276 256 267 277
59 68 61 121 169 141 50 80 86 348 50 35 103 120 126 30 132 124 97 173 144 94 259 137 261 251 285 323 103 103 112 110 107 130 153 200 225 262 281 290 272 271 269 267
120 110 114 98 54 55 80 8 350 58 148 42 109 116 104 86 50 104 208 122 63 213 172 77 266 256 162 168 153 136 127 126 144 180 223 256 263 254 255 265 274 271 271 274
48 53 60 54 316 53 99 162 308 103 151 169 132 91 120 57 53 65 94 86 193 66 57 229 227 229 174 186 181 165 161 162 194 256 244 249 255 249 234 258 265 269 269 270
60 69 43 79 357 53 88 140 134 115 120 116 101 83 109 122 61 104 91 237 79 49 358 241 252 218 192 190 187 123 245 254 262 267 265 267 268 278 278 268 269 270 272 276
66 55 51 54 203 228 234 287 68 14 102 83 57 43 83 22 80 58 85 35 280 198 226 237 286 108 130 169 210 259 269 273 273 259 271 273 266 264 276 276 267 261 269 272
62 49 57 98 65 50 70 53 76 352 20 55 52 94 57 4 124 64 203 121 219 247 224 263 33 66 301 278 283 281 260 266 267 265 266 274 273 271 277 283 275 270 266 267
51 25 10 77 79 62 35 78 331 305 64 111 96 71 205 90 47 324 192 200 214 212 269 257 230 249 272 269 274 278 280 272 258 258 266 272 276 268 273 277 278 270 266 261